Stations météo

réclame
Mon MeteoGroup
Strathallan, Grande-Bretagne (3144): Température de l'air & dewpoint: 21.02.2020 02:00:00 - 27.02.2020 02:00:00 (GMT)Strathallan, Grande-Bretagne (3144): Température de l'air -20cm & Température de l'air -100cm: 21.02.2020 02:00:00 - 27.02.2020 02:00:00 (GMT)Strathallan, Grande-Bretagne (3144): Vitesse du vent & gusts: 21.02.2020 02:00:00 - 27.02.2020 02:00:00 (GMT)Strathallan, Grande-Bretagne (3144): Direction du vent: 21.02.2020 02:00:00 - 27.02.2020 02:00:00 (GMT)Strathallan, Grande-Bretagne (3144): reduced air pressure: 21.02.2020 02:00:00 - 27.02.2020 02:00:00 (GMT)Strathallan, Grande-Bretagne (3144): visibility: 21.02.2020 02:00:00 - 27.02.2020 02:00:00 (GMT)Strathallan, Grande-Bretagne (3144): Quantités de précipitations: 21.02.2020 02:00:00 - 27.02.2020 02:00:00 (GMT)
Date & Time tt [°C] td [°C] tt -20cm [°C] tt -100cm [°C] ff [km/h] ff [knt] fx [km/h] fx [knt] dd ppp [hPa] vv [km] rr [mm]
27.02.2020 02:00:00 - - - - - - - - - - - -
27.02.2020 01:00:00 1,2 0,1 - - 21 11 - - SW 995,6 50 0,0
27.02.2020 00:00:00 1,5 0,1 - - 16 9 - - WSW 995,8 50 0,0
26.02.2020 23:00:00 1,5 0,2 - - 16 9 - - SW 996,6 50 0,0
26.02.2020 22:00:00 1,5 0,1 - - 8 4 - - W 997,5 50 0,0
26.02.2020 21:00:00 1,4 0,2 - - 13 7 - - WSW 998,0 50 0,0
26.02.2020 20:00:00 1,2 0,1 - - 22 12 - - SW 998,5 50 0,0
26.02.2020 19:00:00 1,4 -0,2 - - 22 12 - - SW 999,1 50 0,0
26.02.2020 18:00:00 2,1 -0,9 - - 16 9 - - WSW 999,4 50 0,0
26.02.2020 17:00:00 3,1 -1,0 - - 24 13 - - W 999,5 50 0,0
26.02.2020 16:00:00 4,9 -2,1 - - 16 9 - - WSW 999,5 50 0,0
26.02.2020 15:00:00 5,0 -1,4 - - 22 12 - - W 999,4 45 0,0
26.02.2020 14:00:00 5,2 -1,3 - - 26 14 - - W 999,3 50 0,0
26.02.2020 13:00:00 4,7 -1,0 - - 18 10 46 25 W 999,3 40 0,0
26.02.2020 12:00:00 4,6 -2,0 - - 29 16 - - W 999,1 50 0,0
26.02.2020 11:00:00 4,7 -1,3 - - 26 14 - - W 998,3 35 0,0
26.02.2020 10:00:00 2,4 0,2 - - 9 5 - - SW 997,9 50 0,0
26.02.2020 09:00:00 1,9 -0,1 3,0 5,0 5 3 - - W 997,5 50 0,0
26.02.2020 08:00:00 0,2 -1,2 - - 11 6 - - SW 996,8 50 0,0
26.02.2020 07:00:00 -0,4 -1,8 - - 8 4 - - SW 996,1 50 0,0
26.02.2020 06:00:00 0,0 -1,2 - - 11 6 - - SW 995,3 50 0,0
26.02.2020 05:00:00 -0,6 -1,2 - - 8 4 - - SW 994,7 50 0,0
26.02.2020 04:00:00 -2,2 -2,5 - - 8 4 - - WSW 994,1 50 0,0
26.02.2020 03:00:00 -1,9 -2,2 - - 4 2 - - SW 993,6 50 0,0
26.02.2020 02:00:00 -1,4 -1,7 - - 2 1 - - E 993,2 45 0,0
26.02.2020 01:00:00 -1,5 -1,8 - - 5 3 - - W 992,6 35 0,0
26.02.2020 00:00:00 -1,3 -1,7 - - 5 3 - - SW 991,6 45 0,0
25.02.2020 23:00:00 -0,8 -1,4 - - 5 3 - - SW 991,1 40 0,0
25.02.2020 22:00:00 0,4 -0,3 - - 9 5 - - SW 990,6 50 0,0
25.02.2020 21:00:00 1,2 0,3 - - 13 7 - - SW 990,2 50 0,0
25.02.2020 20:00:00 1,0 0,1 - - 11 6 - - WSW 990,1 50 0,0
25.02.2020 19:00:00 2,1 0,6 - - 11 6 - - SW 990,0 50 0,0
25.02.2020 18:00:00 2,6 0,2 - - 15 8 - - WSW 989,7 50 0,0
25.02.2020 17:00:00 3,7 0,8 - - 15 8 - - SW 989,6 50 0,0
25.02.2020 16:00:00 4,2 1,5 - - 15 8 - - SW 989,7 50 0,0
25.02.2020 15:00:00 4,8 0,9 - - 16 9 - - SW 990,0 50 0,0
25.02.2020 14:00:00 5,0 1,1 - - 22 12 - - WSW 990,2 45 0,0
25.02.2020 13:00:00 5,0 2,3 - - 11 6 - - WSW 990,9 50 0,0
25.02.2020 12:00:00 4,1 1,7 - - 16 9 - - SW 991,3 50 0,0
25.02.2020 11:00:00 3,1 1,8 - - 11 6 - - WSW 991,8 45 0,0
25.02.2020 10:00:00 1,6 0,9 - - 11 6 - - WSW 992,1 50 0,2
25.02.2020 09:00:00 1,3 0,9 3,2 5,2 13 7 - - WSW 992,5 50 0,0
25.02.2020 08:00:00 1,0 0,3 - - 13 7 - - WSW 992,9 50 0,0
25.02.2020 07:00:00 1,1 0,4 - - 16 9 - - SW 993,2 50 0,0
25.02.2020 06:00:00 1,0 -0,3 - - 9 5 - - WSW 993,6 50 0,0
25.02.2020 05:00:00 0,9 -0,3 - - 15 8 - - WSW 994,0 50 0,0
25.02.2020 04:00:00 0,2 -0,8 - - 4 2 - - SW 994,4 50 0,0
25.02.2020 03:00:00 0,7 -0,8 - - 8 4 - - W 995,1 50 0,0
25.02.2020 02:00:00 0,8 -0,9 - - 9 5 - - SW 995,5 50 0,0
25.02.2020 01:00:00 0,5 -0,6 - - 8 4 - - SW 996,2 50 0,0
25.02.2020 00:00:00 1,3 -0,2 - - 8 4 - - SSW 996,0 50 0,0
24.02.2020 23:00:00 1,0 -0,3 - - 9 5 - - SW 995,8 50 0,0
24.02.2020 22:00:00 1,5 0,0 - - 13 7 - - WSW 995,8 50 0,0
24.02.2020 21:00:00 2,0 0,5 - - 9 5 - - WSW 995,8 50 0,0
24.02.2020 20:00:00 2,7 1,0 - - 16 9 - - SW 995,7 50 0,0
24.02.2020 19:00:00 2,1 1,4 - - 9 5 - - WSW 995,3 50 0,2
24.02.2020 18:00:00 2,1 1,6 - - 5 3 - - SW 994,9 40 0,4
24.02.2020 17:00:00 2,4 1,9 - - 5 3 - - W 994,4 8 0,6
24.02.2020 16:00:00 2,2 1,7 - - 13 7 - - N 993,8 5 0,2
24.02.2020 15:00:00 1,8 1,3 - - 16 9 - - NNE 993,7 7 0,2
24.02.2020 14:00:00 1,6 1,1 - - 15 8 - - NNE 994,4 7 0,6
24.02.2020 13:00:00 2,4 1,7 - - 15 8 - - ENE 995,8 16 0,4
24.02.2020 12:00:00 2,0 1,4 - - 15 8 - - ENE 997,5 9 1,2
24.02.2020 11:00:00 1,8 1,2 - - 18 10 - - ENE 998,8 9 1,2
24.02.2020 10:00:00 2,0 1,2 - - 21 11 - - ENE 1000,5 22 0,8
24.02.2020 09:00:00 2,1 1,3 3,7 5,0 13 7 - - ENE 1002,9 23 0,4
24.02.2020 08:00:00 2,1 1,7 - - 15 8 - - ENE 1004,8 24 0,4
24.02.2020 07:00:00 1,6 1,4 - - 9 5 - - ENE 1006,8 7 0,8
24.02.2020 06:00:00 1,2 0,8 - - 9 5 - - NE 1008,5 10 1,0
24.02.2020 05:00:00 0,7 0,3 - - 4 2 - - SE 1010,5 7 0,0
24.02.2020 04:00:00 0,2 -0,3 - - 2 1 - - W 1012,7 40 0,0
24.02.2020 03:00:00 0,0 -0,4 - - 4 2 - - W 1014,5 40 0,0
24.02.2020 02:00:00 0,0 -0,3 - - 4 2 - - W 1015,7 35 0,0
24.02.2020 01:00:00 0,1 -0,5 - - 4 2 - - NE 1016,5 45 0,0
24.02.2020 00:00:00 0,7 0,0 - - 4 2 - - WSW 1017,1 30 0,0
23.02.2020 23:00:00 1,3 0,2 - - 8 4 - - WSW 1017,6 35 0,0
23.02.2020 22:00:00 1,7 0,2 - - 8 4 - - SW 1017,9 50 0,0
23.02.2020 21:00:00 3,0 1,2 - - 8 4 - - SW 1017,5 30 0,0
23.02.2020 20:00:00 3,4 1,0 - - 13 7 - - SW 1016,8 40 0,0
23.02.2020 19:00:00 4,2 1,1 - - 16 9 - - WSW 1016,0 40 0,0
23.02.2020 18:00:00 4,7 1,0 - - 18 10 - - WSW 1014,7 50 0,0
23.02.2020 17:00:00 5,9 1,0 - - 16 9 46 25 SW 1013,2 45 0,0
23.02.2020 16:00:00 6,7 1,6 - - 29 16 46 25 W 1011,9 35 0,0
23.02.2020 15:00:00 7,0 1,6 - - 28 15 - - W 1010,3 50 0,0
23.02.2020 14:00:00 6,9 1,8 - - 16 9 57 31 W 1008,9 50 0,0
23.02.2020 13:00:00 6,5 0,2 - - 18 10 48 26 W 1007,6 45 0,0
23.02.2020 12:00:00 5,9 0,2 - - 28 15 48 26 WSW 1006,4 50 0,0
23.02.2020 11:00:00 5,4 0,0 - - 28 15 55 30 W 1004,9 50 0,0
23.02.2020 10:00:00 4,0 0,5 - - 24 13 - - W 1003,8 30 0,0
23.02.2020 09:00:00 2,2 1,1 3,9 5,0 22 12 - - SW 1003,3 50 0,2
23.02.2020 08:00:00 2,2 1,0 - - 18 10 - - SW 1002,9 50 0,0
23.02.2020 07:00:00 2,0 0,9 - - 21 11 - - SSW 1002,3 50 0,0
23.02.2020 06:00:00 2,0 1,1 - - 22 12 - - SW 1002,3 45 0,0
23.02.2020 05:00:00 2,2 1,1 - - 22 12 - - SW 1002,4 28 0,0
23.02.2020 04:00:00 2,2 0,8 - - 21 11 - - SW 1002,8 50 0,0
23.02.2020 03:00:00 2,2 1,1 - - 18 10 - - SW 1003,6 30 0,4
23.02.2020 02:00:00 2,7 1,3 - - 21 11 - - SW 1004,2 45 0,0
23.02.2020 01:00:00 3,5 1,1 - - 28 15 50 27 SW 1004,7 8 0,0
23.02.2020 00:00:00 3,1 0,6 - - 18 10 - - WSW 1005,1 27 0,0
22.02.2020 23:00:00 2,8 0,4 - - 21 11 46 25 SW 1005,0 27 0,0
22.02.2020 22:00:00 2,6 0,6 - - 18 10 - - SW 1005,3 25 0,0
22.02.2020 21:00:00 3,0 0,4 - - 24 13 46 25 SW 1005,5 19 0,2
22.02.2020 20:00:00 2,9 0,1 - - 34 18 61 33 WSW 1005,6 5 0,2
22.02.2020 19:00:00 4,0 -1,0 - - 29 16 59 32 WSW 1004,4 9 0,4
22.02.2020 18:00:00 2,4 0,5 - - 18 10 54 29 SW 1003,7 18 0,2
22.02.2020 17:00:00 3,6 -0,3 - - 31 17 65 35 WSW 1002,8 30 0,2
22.02.2020 16:00:00 3,4 0,0 - - 46 25 83 45 WSW 1002,7 18 0,0
22.02.2020 15:00:00 4,2 0,6 - - 24 13 61 33 SW 1001,4 40 0,2
22.02.2020 14:00:00 4,1 1,5 - - 28 15 81 44 WSW 1000,7 30 0,4
22.02.2020 13:00:00 4,2 0,8 - - 28 15 57 31 WSW 1000,2 40 0,4
22.02.2020 12:00:00 4,9 1,1 - - 28 15 68 37 SW 998,9 40 0,0
22.02.2020 11:00:00 4,0 1,5 - - 28 15 52 28 SW 998,3 40 0,4
22.02.2020 10:00:00 2,6 1,2 - - 29 16 55 30 SW 997,7 50 0,4
22.02.2020 09:00:00 3,1 0,7 4,7 5,0 24 13 50 27 SW 997,1 18 0,4
22.02.2020 08:00:00 2,9 0,5 - - 41 22 65 35 WSW 996,2 18 0,2
22.02.2020 07:00:00 2,9 0,4 - - 24 13 46 25 WSW 994,8 50 0,0
22.02.2020 06:00:00 2,9 1,0 - - 44 24 67 36 WSW 994,7 2,2 0,6
22.02.2020 05:00:00 4,6 1,2 - - 28 15 57 31 WSW 993,6 50 0,0
22.02.2020 04:00:00 5,5 1,8 - - 37 20 59 32 WSW 992,7 50 0,0
22.02.2020 03:00:00 6,0 3,4 - - 34 18 70 38 WSW 992,2 40 1,0
22.02.2020 02:00:00 8,0 3,7 - - 37 20 70 38 WSW 991,3 50 0,4
22.02.2020 01:00:00 8,8 4,6 - - 46 25 100 54 WSW 990,6 30 1,6
22.02.2020 00:00:00 9,7 7,8 - - 39 21 61 33 SW 989,5 50 1,2
21.02.2020 23:00:00 8,3 7,4 - - 29 16 46 25 SW 992,0 5 2,0
21.02.2020 22:00:00 8,7 7,8 - - 21 11 46 25 SW 993,7 8 2,0
21.02.2020 21:00:00 9,0 8,0 - - 26 14 50 27 SW 994,5 5 1,4
21.02.2020 20:00:00 9,3 8,5 - - 24 13 - - SW 995,6 4,5 4,0
21.02.2020 19:00:00 9,2 8,4 - - 24 13 46 25 SW 996,4 4,2 4,0
21.02.2020 18:00:00 9,4 8,6 - - 24 13 52 28 WSW 997,7 2,7 3,6
21.02.2020 17:00:00 9,4 8,4 - - 29 16 54 29 SW 998,0 4,0 2,6
21.02.2020 16:00:00 9,5 8,5 - - 26 14 - - SW 998,3 3,5 1,6
21.02.2020 15:00:00 9,3 8,4 - - 28 15 52 28 SW 998,7 3,0 1,4
21.02.2020 14:00:00 8,9 8,0 - - 29 16 55 30 SW 999,1 2,8 1,2
21.02.2020 13:00:00 8,8 7,7 - - 29 16 48 26 SW 999,3 3,4 2,0
21.02.2020 12:00:00 8,4 7,3 - - 29 16 57 31 SW 999,6 6 2,2
21.02.2020 11:00:00 7,9 6,7 - - 31 17 55 30 SW 999,5 6 1,8
21.02.2020 10:00:00 7,4 6,1 - - 31 17 57 31 SW 999,5 6 3,2
21.02.2020 09:00:00 6,8 5,5 3,7 5,0 31 17 57 31 SW 999,7 7 2,0
21.02.2020 08:00:00 6,2 4,8 - - 35 19 63 34 SW 1000,1 5 2,0
21.02.2020 07:00:00 5,7 4,3 - - 39 21 68 37 WSW 1000,5 6 1,8
21.02.2020 06:00:00 5,4 4,0 - - 42 23 72 39 SW 1000,3 6 1,0
21.02.2020 05:00:00 5,4 3,6 - - 46 25 72 39 SW 1001,1 8 0,8
21.02.2020 04:00:00 5,1 3,1 - - 42 23 63 34 SW 1002,9 9 0,6
21.02.2020 03:00:00 5,8 2,8 - - 34 18 59 32 SW 1004,3 11 0,0
21.02.2020 02:00:00 5,4 3,6 - - 35 19 54 29 SW 1004,7 13 0,0

tt = Température de l'air
td = dewpoint
tt -20cm = Température de l'air -20cm
tt -100cm = Température de l'air -100cm
ff = Vitesse du vent
fx = gusts
dd = Direction du vent
ppp = reduced air pressure
vv = visibility
rr = Quantités de précipitations

stations d'obs. à proximité